Weather History for Topeka, KS

Change the Weather History Date:

Friday, December 5, 2014

  Actual Average Record
Temperature  
Mean Temperature 45 °F 35 °F  
Max Temperature 48 °F 45 °F 73 °F (2001)
Min Temperature 41 °F 25 °F 2 °F (1964)
Degree Days  
Heating Degree Days 20 30  
Month to date heating degree days 153 148  
Since 1 July heating degree days 1184 1142  
Cooling Degree Days 0 0  
Month to date cooling degree days 0 0  
Year to date cooling degree days 1611 1422  
Moisture  
Dew Point 41 °F    
Average Humidity 91    
Maximum Humidity 100    
Minimum Humidity 82    
Precipitation  
Precipitation 1.04 in 0.05 in 1.77 in (1913)
Month to date precipitation 1.04 0.26  
Year to date precipitation 29.92 35.37  
Snow  
Snow 0.00 in 0.20 in 10.80 in (1942)
Month to date snowfall 0.0 0.7  
Year to date snowfall 23.5 13.3  
Since 1 July snowfall 0.4 2.0  
Snow Depth 0.00 in    
Sea Level Pressure  
Sea Level Pressure 30.15 in    
Wind  
Wind Speed 6 mph (NNE)    
Max Wind Speed 12 mph    
Max Gust Speed 14 mph    
Visibility 4 miles    
Events Fog , Rain    
T = Trace of Precipitation, MM = Missing Value Source: NWS Daily Summary

Daily Weather History Graph

Daily Weather History Graph

Search for Another Location

Airport:

Trip Planner

Search our weather history database for the weather conditions in past years. The results will help you decide how hot, cold, wet, or windy it might be!

Date:

Astronomy

Dec. 05, 2014 Rise Set
Actual Time 7:26 AM CST 4:59 PM CST
Civil Twilight 6:56 AM CST 5:29 PM CST
Nautical Twilight 6:23 AM CST 6:02 PM CST
Astronomical Twilight 5:51 AM CST 6:35 PM CST
Moon 4:47 PM CST (12/5) 6:20 AM CST (12/5)
Length of Visible Light 10h 32m
Length of Day
9h 33m
Waxing Gibbous, 99% of the Moon is Illuminated
Dec 5
Waxing Gibbous
Dec 6
Full
Dec 14
Last Quarter
Dec 21
New
Dec 28
First Quarter

Hourly Weather History & Observations

Time (CST) Temp. Windchill Dew Point Humidity Pressure Visibility Wind Dir Wind Speed Gust Speed Precip Events Conditions
12:53 AM 41.0 °F 38.0 °F 39.0 °F 93% 30.08 in 4.0 mi ENE 4.6 mph - N/A   Overcast
1:20 AM 41.0 °F 38.0 °F 39.0 °F 93% 30.06 in 2.5 mi ENE 4.6 mph - N/A   Overcast
1:36 AM 41.0 °F 37.1 °F 39.0 °F 93% 30.06 in 1.5 mi ENE 5.8 mph - 0.03 in Rain Rain
1:53 AM 41.0 °F 35.8 °F 39.0 °F 93% 30.07 in 1.5 mi NE 8.1 mph - 0.08 in Rain Rain
2:14 AM 41.0 °F 37.1 °F 39.9 °F 96% 30.06 in 2.0 mi ENE 5.8 mph - 0.05 in Rain Rain
2:53 AM 41.0 °F 38.0 °F 39.9 °F 96% 30.08 in 2.5 mi ENE 4.6 mph - 0.17 in Rain Rain
3:11 AM 41.0 °F 38.0 °F 39.9 °F 96% 30.06 in 2.0 mi ENE 4.6 mph - 0.04 in Rain Rain
3:27 AM 41.0 °F 37.1 °F 39.9 °F 96% 30.05 in 2.5 mi ENE 5.8 mph - 0.07 in Rain Light Rain
3:42 AM 41.0 °F 37.1 °F 39.9 °F 96% 30.05 in 3.0 mi ENE 5.8 mph - 0.09 in Rain Light Rain
3:50 AM 41.0 °F 38.0 °F 39.2 °F 93% 30.04 in 2.5 mi ENE 4.6 mph - 0.10 in Rain Light Rain
3:53 AM 41.0 °F 38.0 °F 39.9 °F 96% 30.06 in 2.5 mi East 4.6 mph - 0.10 in Rain Light Rain
4:53 AM 41.0 °F 38.0 °F 39.9 °F 96% 30.06 in 2.0 mi East 4.6 mph - 0.13 in Rain Rain
5:29 AM 41.0 °F 39.0 °F 39.9 °F 96% 30.05 in 2.5 mi ENE 3.5 mph - 0.08 in Rain Rain
5:53 AM 41.0 °F 37.1 °F 39.9 °F 96% 30.07 in 2.5 mi NE 5.8 mph - 0.13 in Rain Rain
6:04 AM 41.0 °F 38.0 °F 39.9 °F 96% 30.06 in 2.5 mi NE 4.6 mph - 0.02 in Rain Rain
6:11 AM 41.0 °F 38.0 °F 39.9 °F 96% 30.05 in 3.0 mi NNE 4.6 mph - 0.03 in Rain Rain
6:53 AM 41.0 °F 39.0 °F 39.9 °F 96% 30.07 in 3.0 mi NNE 3.5 mph - 0.09 in Rain Rain
7:09 AM 41.0 °F - 41.0 °F 100% 30.07 in 3.0 mi Calm Calm - 0.03 in Rain Light Rain
7:16 AM 41.0 °F - 41.0 °F 100% 30.07 in 3.0 mi Calm Calm - 0.04 in Rain Rain
7:53 AM 41.0 °F - 41.0 °F 100% 30.08 in 4.0 mi Calm Calm - 0.08 in Rain Light Rain
8:14 AM 42.1 °F - 39.9 °F 92% 30.07 in 3.0 mi Calm Calm - 0.01 in Rain Light Rain
8:44 AM 42.1 °F 40.2 °F 39.9 °F 92% 30.08 in 4.0 mi NE 3.5 mph - 0.04 in Rain Light Rain
8:53 AM 42.1 °F - 41.0 °F 96% 30.10 in 3.0 mi Calm Calm - 0.05 in Rain Light Rain
9:46 AM 42.1 °F 39.2 °F 41.0 °F 96% 30.08 in 2.5 mi NE 4.6 mph - 0.07 in Rain Rain
9:53 AM 42.1 °F 40.2 °F 41.0 °F 96% 30.09 in 2.5 mi NE 3.5 mph - 0.08 in Rain Rain
10:07 AM 43.0 °F - 42.1 °F 97% 30.08 in 3.0 mi Calm Calm - 0.01 in Rain Light Rain
10:19 AM 43.0 °F 40.3 °F 41.0 °F 93% 30.08 in 4.0 mi ESE 4.6 mph - 0.03 in Rain Light Rain
10:53 AM 44.1 °F 42.5 °F 42.1 °F 93% 30.11 in 5.0 mi NNW 3.5 mph - 0.05 in Rain Light Rain
11:00 AM 44.1 °F 40.1 °F 41.0 °F 89% 30.10 in 5.0 mi NNW 6.9 mph - 0.00 in Rain Light Rain
11:53 AM 44.1 °F 39.0 °F 42.1 °F 93% 30.10 in 6.0 mi North 9.2 mph - 0.05 in Rain Light Rain
12:10 PM 44.1 °F 40.1 °F 42.1 °F 93% 30.08 in 5.0 mi North 6.9 mph - 0.00 in Rain Light Rain
12:53 PM 45.0 °F 41.8 °F 43.0 °F 93% 30.09 in 5.0 mi North 5.8 mph - 0.01 in Rain Light Rain
1:53 PM 46.0 °F 41.9 °F 44.1 °F 93% 30.09 in 6.0 mi NNW 8.1 mph - 0.02 in Rain Light Rain
2:13 PM 45.0 °F 42.6 °F 44.1 °F 97% 30.09 in 4.0 mi North 4.6 mph - 0.00 in   Overcast
2:40 PM 46.9 °F - 44.1 °F 90% 30.09 in 7.0 mi NNE 9.2 mph - 0.00 in   Overcast
2:53 PM 46.9 °F - 44.1 °F 90% 30.11 in 7.0 mi North 6.9 mph - 0.00 in   Overcast
3:53 PM 48.0 °F - 45.0 °F 89% 30.13 in 6.0 mi North 6.9 mph - N/A   Overcast
4:53 PM 46.9 °F - 46.0 °F 97% 30.16 in 5.0 mi NNE 4.6 mph - N/A   Overcast
5:53 PM 46.9 °F - 45.0 °F 93% 30.18 in 8.0 mi North 6.9 mph - N/A   Overcast
6:53 PM 46.9 °F - 45.0 °F 93% 30.22 in 7.0 mi NNW 10.4 mph - N/A   Overcast
7:09 PM 46.0 °F 41.4 °F 45.0 °F 96% 30.22 in 6.0 mi North 9.2 mph - N/A   Overcast
7:51 PM 46.4 °F 42.4 °F 44.6 °F 93% 30.23 in 8.0 mi North 8.1 mph - N/A   Overcast
7:53 PM 46.0 °F 41.9 °F 44.1 °F 93% 30.25 in 7.0 mi North 8.1 mph - N/A   Overcast
8:25 PM 44.1 °F 41.5 °F 42.1 °F 93% 30.25 in 6.0 mi NNW 4.6 mph - N/A   Scattered Clouds
8:53 PM 43.0 °F 40.3 °F 41.0 °F 93% 30.26 in 4.0 mi NW 4.6 mph - N/A   Clear
9:01 PM 43.0 °F 39.5 °F 41.0 °F 93% 30.25 in 5.0 mi NW 5.8 mph - N/A   Partly Cloudy
9:40 PM 43.0 °F 36.8 °F 41.0 °F 93% 30.27 in 5.0 mi North 11.5 mph - N/A   Mostly Cloudy
9:53 PM 42.1 °F 36.1 °F 41.0 °F 96% 30.29 in 2.5 mi North 10.4 mph - N/A   Overcast
10:03 PM 42.1 °F 36.6 °F 41.0 °F 96% 30.28 in 1.8 mi North 9.2 mph - N/A   Overcast
10:18 PM 42.1 °F 37.1 °F 41.0 °F 96% 30.29 in 0.8 mi NNW 8.1 mph - N/A   Overcast
10:29 PM 42.1 °F 36.1 °F 41.0 °F 96% 30.30 in 0.8 mi North 10.4 mph - N/A   Mist
10:36 PM 42.1 °F 36.6 °F 41.0 °F 96% 30.29 in 0.8 mi North 9.2 mph - N/A   Mist
10:44 PM 42.1 °F 37.1 °F 41.0 °F 96% 30.30 in 0.5 mi North 8.1 mph - N/A Fog Fog
10:51 PM 42.8 °F 38.0 °F 41.0 °F 93% 30.31 in 0.5 mi North 8.1 mph - N/A Fog Fog
10:53 PM 42.1 °F 36.6 °F 41.0 °F 96% 30.32 in 0.8 mi North 9.2 mph - N/A   Mist
11:19 PM 42.1 °F 36.1 °F 41.0 °F 96% 30.31 in 1.0 mi North 10.4 mph - N/A   Overcast
11:30 PM 42.1 °F 37.1 °F 41.0 °F 96% 30.32 in 1.0 mi North 8.1 mph - N/A   Overcast
11:43 PM 42.1 °F 36.6 °F 41.0 °F 96% 30.32 in 0.8 mi North 9.2 mph - N/A   Overcast
11:53 PM 42.1 °F 38.4 °F 41.0 °F 96% 30.34 in 0.8 mi North 5.8 mph - N/A   Overcast